NORTHEAST SUFFOLK  -  Winter Weather Advisory Winter Weather Advisory        NORTHERN NASSAU  -  Winter Weather Advisory Winter Weather Advisory        NORTHERN QUEENS  -  Winter Weather Advisory Winter Weather Advisory        NORTHWEST SUFFOLK  -  Winter Weather Advisory Winter Weather Advisory        SOUTHEAST SUFFOLK  -  Winter Weather Advisory Winter Weather Advisory        SOUTHERN NASSAU  -  Winter Weather Advisory Winter Weather Advisory        SOUTHERN QUEENS  -  Winter Weather Advisory Winter Weather Advisory        SOUTHWEST SUFFOLK  -  Winter Weather Advisory Winter Weather Advisory      

Active alerts

Northern Queens
  Details for Northern Queens Winter Weather Advisory
Southern Queens
  Details for Southern Queens Winter Weather Advisory
Northern Nassau
  Details for Northern Nassau Winter Weather Advisory
Southern Nassau
  Details for Southern Nassau Winter Weather Advisory
Northwest Suffolk
  Details for Northwest Suffolk Winter Weather Advisory
Southwest Suffolk
  Details for Southwest Suffolk Winter Weather Advisory
Northeast Suffolk
  Details for Northeast Suffolk Winter Weather Advisory
Southeast Suffolk
  Details for Southeast Suffolk Winter Weather Advisory


WXM80 ListenWXM80 Stop

You find our weather info also at:

UK Metoffice

WeatherCloud

Weather Underground

Northeastern Weather Network

AWEKAS

Citizen Weather Observer Program (CWOP)

HAMweather, WeatherForYou, PWS Weather


Weather Underground History page Text

Daily Summary for April 10, 2017 Units:  Metric    English   Both
« Previous Day
Next Day »
Daily Weekly Monthly Yearly Custom
  High: Low: Average:
Temperature: 23.3 °C 7.4 °C 14.9 °C
Dew Point: 10.4 °C 1.4 °C 6.2 °C
Humidity: 74 % 41 % 57 %
Wind Speed: 16.9 km/h 0 km/h 6.6 km/h
Wind Gust: 29.6 km/h - -
Wind:- - South
Pressure: 1022.2 hPa 1017.5 hPa -
Precipitation: 0 mm    
Historical Graphs
 
 
Tabular Data for April 10, 2017
Time Temperature Dew Point Pressure Wind Wind Speed Wind Gust Humidity Rainfall Rate (Hourly)
00:03 10.3 °C 1.9 °C 1020.5 hPa SSW 8.4 km/h 13 km/h 56 % 0 mm
00:08 10.3 °C 1.9 °C 1020.5 hPa SW 3.7 km/h 9.3 km/h 56 % 0 mm
00:13 10.4 °C 2 °C 1020.2 hPa SW 8.9 km/h 14.5 km/h 56 % 0 mm
00:18 10.5 °C 1.8 °C 1020.5 hPa SW 11.6 km/h 14.8 km/h 55 % 0 mm
00:23 10.6 °C 1.6 °C 1020.5 hPa WSW 9.5 km/h 16.7 km/h 54 % 0 mm
00:28 10.6 °C 1.7 °C 1020.5 hPa SW 9.7 km/h 13 km/h 54 % 0 mm
00:33 10.7 °C 1.5 °C 1020.5 hPa WSW 11.4 km/h 18.5 km/h 53 % 0 mm
00:38 10.8 °C 1.6 °C 1020.5 hPa SW 9.2 km/h 9.3 km/h 53 % 0 mm
00:43 10.8 °C 1.6 °C 1020.5 hPa SW 7.6 km/h 11.1 km/h 53 % 0 mm
00:48 10.8 °C 1.6 °C 1020.5 hPa SW 6.3 km/h 9.3 km/h 53 % 0 mm
00:53 10.8 °C 1.6 °C 1020.5 hPa SW 6 km/h 11.1 km/h 53 % 0 mm
00:58 10.8 °C 1.6 °C 1020.5 hPa WSW 6 km/h 9.3 km/h 53 % 0 mm
01:03 10.8 °C 1.6 °C 1020.5 hPa WSW 6 km/h 9.3 km/h 53 % 0 mm
01:08 10.7 °C 1.5 °C 1020.5 hPa SW 8.7 km/h 16.1 km/h 53 % 0 mm
01:10 10.7 °C 1.5 °C 1020.5 hPa SW 7.2 km/h 16.7 km/h 53 % 0 mm
01:15 10.7 °C 1.7 °C 1020.5 hPa WSW 7.4 km/h 16.1 km/h 54 % 0 mm
01:20 10.6 °C 1.4 °C 1020.5 hPa WSW 7.1 km/h 11.3 km/h 53 % 0 mm
01:25 10.6 °C 1.6 °C 1020.5 hPa SW 11.3 km/h 18.5 km/h 54 % 0 mm
01:30 10.6 °C 1.6 °C 1020.5 hPa WSW 12.2 km/h 18.5 km/h 54 % 0 mm
01:35 10.5 °C 1.8 °C 1020.5 hPa WSW 10.1 km/h 16.7 km/h 55 % 0 mm
01:41 10.5 °C 1.8 °C 1020.5 hPa SW 10.3 km/h 18.5 km/h 55 % 0 mm
01:46 10.4 °C 1.8 °C 1020.5 hPa SSW 8.7 km/h 11.3 km/h 55 % 0 mm
01:51 10.4 °C 2 °C 1020.5 hPa SSW 8.4 km/h 11.3 km/h 56 % 0 mm
01:56 10.3 °C 1.9 °C 1020.5 hPa WSW 7.4 km/h 12.9 km/h 56 % 0 mm
02:01 10.2 °C 1.8 °C 1020.5 hPa SW 6.9 km/h 11.3 km/h 56 % 0 mm
02:06 10.1 °C 1.9 °C 1020.5 hPa WSW 7.1 km/h 13 km/h 57 % 0 mm
02:11 10 °C 1.9 °C 1020.5 hPa SW 6.4 km/h 13 km/h 57 % 0 mm
02:16 9.9 °C 2.1 °C 1020.5 hPa SW 4.7 km/h 6.4 km/h 58 % 0 mm
02:21 9.9 °C 2 °C 1020.5 hPa WSW 3.5 km/h 5.6 km/h 58 % 0 mm
02:26 9.8 °C 1.9 °C 1020.5 hPa SW 4.7 km/h 7.4 km/h 58 % 0 mm
02:31 9.8 °C 2.1 °C 1020.5 hPa SW 1.8 km/h 5.6 km/h 59 % 0 mm
02:36 9.7 °C 2.1 °C 1020.5 hPa SW 0.3 km/h 1.9 km/h 59 % 0 mm
02:41 9.6 °C 2 °C 1020.5 hPa SW 1.8 km/h 3.7 km/h 59 % 0 mm
02:46 9.5 °C 1.9 °C 1020.5 hPa Calm   1.9 km/h 59 % 0 mm
02:51 9.4 °C 2.1 °C 1020.5 hPa SW 0.6 km/h 1.9 km/h 60 % 0 mm
02:56 9.3 °C 2.2 °C 1020.5 hPa SW 2.4 km/h 5.6 km/h 61 % 0 mm
03:01 9.1 °C 2.2 °C 1020.5 hPa SW 1.8 km/h 3.7 km/h 62 % 0 mm
03:06 8.9 °C 2.3 °C 1020.9 hPa SSW 1.1 km/h 5.6 km/h 63 % 0 mm
03:11 8.8 °C 2.4 °C 1020.9 hPa SSW 0.2 km/h 3.7 km/h 64 % 0 mm
03:16 8.8 °C 2.4 °C 1020.9 hPa SSW 1.9 km/h 5.6 km/h 64 % 0 mm
03:21 8.8 °C 2.6 °C 1020.9 hPa Calm   1.9 km/h 65 % 0 mm
03:26 8.7 °C 2.5 °C 1020.9 hPa Calm   3.7 km/h 65 % 0 mm
03:31 8.6 °C 2.4 °C 1020.9 hPa SSW 0.6 km/h 1.9 km/h 65 % 0 mm
03:36 8.6 °C 2.6 °C 1020.9 hPa Calm   1.9 km/h 66 % 0 mm
03:38 8.5 °C 2.5 °C 1020.9 hPa SSW 2.9 km/h 6.4 km/h 66 % 0 mm
03:43 8.4 °C 2.7 °C 1020.9 hPa SW 5.1 km/h 9.7 km/h 67 % 0 mm
03:48 8.3 °C 2.6 °C 1020.9 hPa SW 1.4 km/h 5.6 km/h 67 % 0 mm
03:53 8.3 °C 2.7 °C 1020.9 hPa SSW 4.3 km/h 5.6 km/h 68 % 0 mm
03:58 8.3 °C 2.7 °C 1021.2 hPa SW 3.4 km/h 5.6 km/h 68 % 0 mm
04:03 8.2 °C 2.7 °C 1021.2 hPa SSW 3.2 km/h 7.4 km/h 68 % 0 mm
04:08 8.2 °C 2.9 °C 1021.2 hPa SSW 1.1 km/h 3.7 km/h 69 % 0 mm
04:14 8.3 °C 2.9 °C 1020.9 hPa SSW 1.6 km/h 5.6 km/h 69 % 0 mm
04:19 8.2 °C 2.9 °C 1021.2 hPa SSW 2.1 km/h 3.7 km/h 69 % 0 mm
04:24 8.2 °C 3.1 °C 1021.2 hPa SSW 3.1 km/h 5.6 km/h 70 % 0 mm
04:29 8.2 °C 3.1 °C 1021.2 hPa SSW 4 km/h 5.6 km/h 70 % 0 mm
04:34 8.2 °C 3.2 °C 1021.2 hPa SSW 1.9 km/h 5.6 km/h 71 % 0 mm
04:39 8.2 °C 3.2 °C 1021.2 hPa SSW 3.4 km/h 6.4 km/h 71 % 0 mm
04:44 8.1 °C 3.2 °C 1021.2 hPa SSW 3.4 km/h 6.4 km/h 71 % 0 mm
04:49 8.1 °C 3.3 °C 1021.6 hPa SSW 4.7 km/h 5.6 km/h 72 % 0 mm
04:54 8.1 °C 3.3 °C 1021.6 hPa South 4 km/h 5.6 km/h 72 % 0 mm
04:59 8.1 °C 3.3 °C 1021.6 hPa South 2.9 km/h 5.6 km/h 72 % 0 mm
05:04 8 °C 3.3 °C 1021.6 hPa South 2.4 km/h 5.6 km/h 72 % 0 mm
05:09 8 °C 3.3 °C 1021.6 hPa South 1.9 km/h 3.7 km/h 72 % 0 mm
05:14 7.9 °C 3.4 °C 1021.6 hPa South 1.6 km/h 5.6 km/h 73 % 0 mm
05:19 7.9 °C 3.2 °C 1021.6 hPa South 1.9 km/h 3.7 km/h 72 % 0 mm
05:24 7.8 °C 3.1 °C 1021.2 hPa South 1.3 km/h 3.2 km/h 72 % 0 mm
05:29 7.8 °C 3.1 °C 1021.2 hPa South 1.4 km/h 3.7 km/h 72 % 0 mm
05:34 7.7 °C 3.1 °C 1021.2 hPa South 1 km/h 3.7 km/h 73 % 0 mm
05:35 7.7 °C 3.2 °C 1021.2 hPa South 1.9 km/h 3.7 km/h 73 % 0 mm
05:40 7.7 °C 3.1 °C 1021.2 hPa South 2.7 km/h 5.6 km/h 73 % 0 mm
05:45 7.6 °C 3 °C 1021.6 hPa South 1.9 km/h 5.6 km/h 73 % 0 mm
05:50 7.5 °C 3.2 °C 1021.2 hPa South 4 km/h 5.6 km/h 74 % 0 mm
05:55 7.4 °C 3.1 °C 1021.6 hPa SSW 5.1 km/h 5.6 km/h 74 % 0 mm
06:00 7.4 °C 3.1 °C 1021.6 hPa SSW 3.1 km/h 5.6 km/h 74 % 0 mm
06:05 7.4 °C 3.1 °C 1021.6 hPa SSW 1.8 km/h 4.8 km/h 74 % 0 mm
06:10 7.4 °C 3.1 °C 1021.6 hPa SSW 3.7 km/h 5.6 km/h 74 % 0 mm
06:15 7.5 °C 3.2 °C 1021.6 hPa SSW 0.8 km/h 3.2 km/h 74 % 0 mm
06:20 7.6 °C 3 °C 1021.9 hPa SW 2.1 km/h 4.8 km/h 73 % 0 mm
06:25 7.6 °C 3.1 °C 1021.6 hPa SSW 1.9 km/h 5.6 km/h 73 % 0 mm
06:30 7.7 °C 3.2 °C 1021.9 hPa SW 4.8 km/h 7.4 km/h 73 % 0 mm
06:35 7.8 °C 3.1 °C 1021.9 hPa SSW 3.2 km/h 5.6 km/h 72 % 0 mm
06:40 7.9 °C 3.2 °C 1021.9 hPa SW 6.9 km/h 11.1 km/h 72 % 0 mm
06:45 8.1 °C 3.3 °C 1021.9 hPa SSW 5.1 km/h 8 km/h 72 % 0 mm
06:50 8.3 °C 3.3 °C 1021.9 hPa SW 7.6 km/h 7.6 km/h 71 % 0 mm
06:52 8.4 °C 3.4 °C 1021.9 hPa WSW 5.1 km/h 9.3 km/h 71 % 0 mm
06:57 8.7 °C 3.5 °C 1021.9 hPa SW 6 km/h 9.3 km/h 70 % 0 mm
07:02 8.9 °C 3.7 °C 1022.2 hPa SW 5.8 km/h 6.4 km/h 70 % 0 mm
07:07 9.2 °C 3.8 °C 1021.9 hPa SW 5.6 km/h 9.3 km/h 69 % 0 mm
07:12 9.4 °C 3.8 °C 1021.9 hPa SW 5.5 km/h 9.3 km/h 68 % 0 mm
07:17 9.6 °C 4 °C 1022.2 hPa SW 5.8 km/h 8 km/h 68 % 0 mm
07:22 9.8 °C 4 °C 1021.9 hPa SSW 6.4 km/h 11.1 km/h 67 % 0 mm
07:27 10.1 °C 4.2 °C 1021.9 hPa SSW 8.9 km/h 12.9 km/h 67 % 0 mm
07:32 10.3 °C 4.2 °C 1021.9 hPa SSW 7.2 km/h 9.3 km/h 66 % 0 mm
07:37 10.4 °C 3.9 °C 1021.9 hPa SW 9 km/h 13 km/h 64 % 0 mm
07:42 10.6 °C 4.1 °C 1021.9 hPa SSW 7.1 km/h 11.3 km/h 64 % 0 mm
07:47 10.8 °C 4 °C 1021.9 hPa South 6.9 km/h 8 km/h 63 % 0 mm
07:52 11.1 °C 4.3 °C 1021.9 hPa SSW 6.6 km/h 13 km/h 63 % 0 mm
07:57 11.2 °C 4.2 °C 1022.2 hPa SSW 9.8 km/h 13 km/h 62 % 0 mm
08:02 11.6 °C 4.3 °C 1021.9 hPa SW 3.2 km/h 12.9 km/h 61 % 0 mm
08:07 11.9 °C 4.6 °C 1021.9 hPa SW 3.4 km/h 8 km/h 61 % 0 mm
08:12 12.2 °C 4.4 °C 1021.9 hPa SSW 3.2 km/h 12.9 km/h 59 % 0 mm
08:17 12.6 °C 5 °C 1021.9 hPa SW 4.8 km/h 11.3 km/h 60 % 0 mm
08:22 12.9 °C 4.7 °C 1021.9 hPa SW 9.7 km/h 12.9 km/h 57 % 0 mm
08:27 13.3 °C 4.7 °C 1021.9 hPa SW 5.5 km/h 14.8 km/h 56 % 0 mm
08:32 13.5 °C 4.9 °C 1021.6 hPa SW 9.7 km/h 12.9 km/h 56 % 0 mm
08:37 13.8 °C 5.2 °C 1021.9 hPa SW 4.5 km/h 11.1 km/h 56 % 0 mm
08:42 14 °C 4.8 °C 1021.9 hPa SW 4.8 km/h 12.9 km/h 54 % 0 mm
08:47 14.3 °C 4.9 °C 1021.9 hPa SW 8 km/h 11.3 km/h 53 % 0 mm
08:52 14.7 °C 5.2 °C 1021.9 hPa SW 4.8 km/h 16.1 km/h 53 % 0 mm
08:57 15 °C 5.2 °C 1021.9 hPa WSW 7.1 km/h 11.3 km/h 52 % 0 mm
09:02 15.3 °C 5.5 °C 1021.9 hPa SW 3.9 km/h 5.6 km/h 52 % 0 mm
09:07 15.6 °C 5.7 °C 1021.9 hPa SW 5.5 km/h 7.4 km/h 52 % 0 mm
09:12 15.9 °C 5.8 °C 1021.9 hPa SW 5.1 km/h 8 km/h 51 % 0 mm
09:17 16.2 °C 6.1 °C 1021.9 hPa WSW 3.5 km/h 7.4 km/h 51 % 0 mm
09:23 16.5 °C 7.4 °C 1021.9 hPa East 2.4 km/h 5.6 km/h 55 % 0 mm
09:28 16.7 °C 7.3 °C 1021.9 hPa ENE 1.9 km/h 3.7 km/h 54 % 0 mm
09:33 16.6 °C 7.7 °C 1021.9 hPa ENE 0.2 km/h 1.9 km/h 56 % 0 mm
09:38 16.7 °C 7.6 °C 1021.9 hPa ENE 1.9 km/h 3.7 km/h 55 % 0 mm
09:43 16.3 °C 6.7 °C 1021.9 hPa NE 1.6 km/h 5.6 km/h 53 % 0 mm
09:48 16 °C 7.5 °C 1021.9 hPa NE 1.9 km/h 3.7 km/h 57 % 0 mm
09:53 15.8 °C 7.3 °C 1021.9 hPa NNE 2.1 km/h 3.7 km/h 57 % 0 mm
09:58 15.6 °C 8.1 °C 1021.9 hPa NNE 1.1 km/h 5.6 km/h 61 % 0 mm
10:03 15.4 °C 8.2 °C 1021.9 hPa NE 2.4 km/h 5.6 km/h 62 % 0 mm
10:08 15.3 °C 6.8 °C 1021.9 hPa ENE 4.5 km/h 7.4 km/h 57 % 0 mm
10:13 15.2 °C 6.9 °C 1021.9 hPa ENE 3.9 km/h 5.6 km/h 58 % 0 mm
10:18 14.9 °C 6.7 °C 1021.9 hPa ENE 4.2 km/h 5.6 km/h 58 % 0 mm
10:23 14.8 °C 6.6 °C 1021.6 hPa NE 2.1 km/h 5.6 km/h 58 % 0 mm
10:28 14.6 °C 6.9 °C 1021.6 hPa ENE 5 km/h 5.6 km/h 60 % 0 mm
10:34 14.2 °C 6.6 °C 1021.6 hPa ENE 3.1 km/h 5.6 km/h 60 % 0 mm
10:39 14.1 °C 6.9 °C 1021.6 hPa NE 1.4 km/h 3.7 km/h 62 % 0 mm
10:44 14.3 °C 7.6 °C 1021.6 hPa NNE 4.5 km/h 5.6 km/h 64 % 0 mm
10:49 14.8 °C 7.6 °C 1021.2 hPa NE 1.8 km/h 4.8 km/h 62 % 0 mm
10:54 14.9 °C 6.7 °C 1021.6 hPa NNE 5.6 km/h 5.6 km/h 58 % 0 mm
10:59 15.3 °C 6.6 °C 1021.2 hPa ENE 3.7 km/h 5.6 km/h 56 % 0 mm
11:04 15.4 °C 7.4 °C 1021.2 hPa NNE 5.6 km/h 8 km/h 59 % 0 mm
11:09 15.7 °C 6.9 °C 1021.2 hPa ENE 5 km/h 5.6 km/h 56 % 0 mm
11:14 15.7 °C 6.1 °C 1021.2 hPa ENE 6 km/h 6.4 km/h 53 % 0 mm
11:19 15.3 °C 6.6 °C 1020.9 hPa NE 1.8 km/h 5.6 km/h 56 % 0 mm
11:24 15.6 °C 6.8 °C 1020.9 hPa NNE 2.4 km/h 5.6 km/h 56 % 0 mm
11:29 16.3 °C 7.5 °C 1020.9 hPa NNE 4.2 km/h 5.6 km/h 56 % 0 mm
11:34 16.9 °C 7.6 °C 1020.9 hPa NNE 5.6 km/h 11.1 km/h 54 % 0 mm
11:40 17.6 °C 7.8 °C 1020.9 hPa NE 2.3 km/h 5.6 km/h 53 % 0 mm
11:45 17.6 °C 7 °C 1020.9 hPa NE 1.9 km/h 6.4 km/h 50 % 0 mm
11:49 17.3 °C 5.9 °C 1020.9 hPa ENE 4.2 km/h 7.4 km/h 47 % 0 mm
11:55 16.4 °C 6 °C 1020.9 hPa ENE 6.3 km/h 8 km/h 50 % 0 mm
12:00 16 °C 6.4 °C 1020.9 hPa ENE 7.2 km/h 11.3 km/h 53 % 0 mm
12:01 15.9 °C 6.6 °C 1020.9 hPa ENE 9.3 km/h 13 km/h 54 % 0 mm
12:06 15.1 °C 6.6 °C 1020.9 hPa ENE 5 km/h 5.6 km/h 57 % 0 mm
12:11 14.6 °C 7.1 °C 1020.9 hPa ENE 6 km/h 11.1 km/h 61 % 0 mm
12:15 14.4 °C 7.5 °C 1020.9 hPa ENE 5.6 km/h 9.3 km/h 63 % 0 mm
12:20 14.3 °C 7.3 °C 1020.9 hPa ENE 5.3 km/h 6.4 km/h 63 % 0 mm
12:25 14.4 °C 7.5 °C 1020.9 hPa NNE 6.1 km/h 11.1 km/h 63 % 0 mm
12:30 14.7 °C 8.2 °C 1020.9 hPa NNE 5.6 km/h 9.3 km/h 65 % 0 mm
12:35 15.3 °C 8.3 °C 1020.5 hPa NNE 4.2 km/h 7.4 km/h 63 % 0 mm
12:40 15.7 °C 8.7 °C 1020.5 hPa ENE 2.9 km/h 5.6 km/h 63 % 0 mm
12:45 15.7 °C 8.2 °C 1020.5 hPa ENE 6 km/h 11.3 km/h 61 % 0 mm
12:50 15.2 °C 8 °C 1020.5 hPa NE 4.5 km/h 5.6 km/h 62 % 0 mm
12:55 15 °C 8.2 °C 1020.2 hPa NE 2.3 km/h 5.6 km/h 64 % 0 mm
12:59 14.9 °C 8.4 °C 1020.2 hPa NE 3.7 km/h 7.4 km/h 65 % 0 mm
13:04 15.3 °C 8.7 °C 1020.2 hPa NNE 2.4 km/h 5.6 km/h 65 % 0 mm
13:09 15.8 °C 9.2 °C 1019.9 hPa NNE 1.8 km/h 5.6 km/h 65 % 0 mm
13:14 16.6 °C 9 °C 1019.5 hPa WSW 6.8 km/h 14.8 km/h 61 % 0 mm
13:19 17.7 °C 8.6 °C 1019.5 hPa SW 5.1 km/h 11.1 km/h 55 % 0 mm
13:25 19 °C 9.2 °C 1019.5 hPa South 8.5 km/h 16.7 km/h 53 % 0 mm
13:30 20.2 °C 9.1 °C 1019.5 hPa SSW 7.1 km/h 11.1 km/h 49 % 0 mm
13:35 20.9 °C 9.2 °C 1019.5 hPa WSW 6.6 km/h 17.7 km/h 47 % 0 mm
13:40 21.5 °C 9.1 °C 1019.5 hPa SSW 8 km/h 18.5 km/h 45 % 0 mm
13:45 21.9 °C 9.8 °C 1019.5 hPa SSW 4.7 km/h 14.8 km/h 46 % 0 mm
13:50 22.2 °C 9.3 °C 1019.5 hPa South 4.8 km/h 11.1 km/h 44 % 0 mm
13:55 22.3 °C 9.5 °C 1019.2 hPa South 2.7 km/h 7.4 km/h 44 % 0 mm
14:00 22.5 °C 9.3 °C 1019.2 hPa SSW 7.4 km/h 16.7 km/h 43 % 0 mm
14:05 22.7 °C 10.1 °C 1019.2 hPa SSW 4.5 km/h 9.3 km/h 45 % 0 mm
14:10 22.7 °C 9.4 °C 1019.2 hPa SSW 3.9 km/h 8 km/h 43 % 0 mm
14:15 22.6 °C 9.3 °C 1019.2 hPa South 7.1 km/h 13 km/h 43 % 0 mm
14:20 22.5 °C 10.3 °C 1019.2 hPa South 4.7 km/h 9.3 km/h 46 % 0 mm
14:25 22.6 °C 10.4 °C 1019.2 hPa SSW 8.7 km/h 12.9 km/h 46 % 0 mm
14:30 22.7 °C 9.8 °C 1018.8 hPa SSW 11.1 km/h 18.5 km/h 44 % 0 mm
14:35 22.8 °C 9.9 °C 1018.8 hPa WSW 8.4 km/h 11.3 km/h 44 % 0 mm
14:40 22.8 °C 9.9 °C 1018.8 hPa SSW 5.6 km/h 9.3 km/h 44 % 0 mm
14:45 23 °C 9.4 °C 1018.8 hPa South 7.1 km/h 16.7 km/h 42 % 0 mm
14:50 23.1 °C 10.2 °C 1018.8 hPa South 4.3 km/h 7.4 km/h 44 % 0 mm
14:56 23.3 °C 9.7 °C 1018.8 hPa SSE 4.7 km/h 9.3 km/h 42 % 0 mm
15:01 23.3 °C 10.3 °C 1018.8 hPa South 10.9 km/h 20.4 km/h 44 % 0 mm
15:06 22.9 °C 9.7 °C 1018.5 hPa South 8.5 km/h 16.7 km/h 43 % 0 mm
15:11 22.6 °C 9.7 °C 1018.5 hPa SSE 8.4 km/h 14.5 km/h 44 % 0 mm
15:16 22.5 °C 9.6 °C 1018.5 hPa South 9.2 km/h 16.7 km/h 44 % 0 mm
15:21 22.3 °C 9.5 °C 1018.5 hPa SE 7.1 km/h 12.9 km/h 44 % 0 mm
15:26 22.3 °C 9.4 °C 1018.2 hPa SSE 6.9 km/h 13 km/h 44 % 0 mm
15:31 22.3 °C 9.8 °C 1018.2 hPa SSE 6.1 km/h 9.7 km/h 45 % 0 mm
15:36 22.5 °C 9.6 °C 1018.2 hPa SSW 6.1 km/h 16.7 km/h 44 % 0 mm
15:41 22.7 °C 10.2 °C 1018.2 hPa SSE 6.8 km/h 16.7 km/h 45 % 0 mm
15:46 22.9 °C 10.3 °C 1018.2 hPa South 10 km/h 16.1 km/h 45 % 0 mm
15:51 22.9 °C 9.7 °C 1018.2 hPa SSE 12.4 km/h 16.7 km/h 43 % 0 mm
15:56 22.9 °C 9.3 °C 1018.2 hPa SSW 10.5 km/h 18.5 km/h 42 % 0 mm
16:01 22.9 °C 9.3 °C 1018.2 hPa South 8.5 km/h 16.7 km/h 42 % 0 mm
16:06 22.9 °C 9.3 °C 1018.2 hPa SSW 5 km/h 9.3 km/h 42 % 0 mm
16:11 23 °C 9.1 °C 1018.2 hPa SSW 12.4 km/h 25.9 km/h 41 % 0 mm
16:16 22.9 °C 9.3 °C 1018.2 hPa SSW 10 km/h 16.7 km/h 42 % 0 mm
16:21 22.8 °C 9.2 °C 1018.2 hPa SSW 9.5 km/h 20.4 km/h 42 % 0 mm
16:26 22.8 °C 9.6 °C 1018.2 hPa South 4.2 km/h 14.8 km/h 43 % 0 mm
16:31 22.7 °C 9.2 °C 1017.8 hPa SSW 9.7 km/h 18.5 km/h 42 % 0 mm
16:36 22.6 °C 9.1 °C 1017.8 hPa SSW 10.6 km/h 18.5 km/h 42 % 0 mm
16:41 22.5 °C 8.6 °C 1017.8 hPa South 7.7 km/h 14.8 km/h 41 % 0 mm
16:47 22.4 °C 9.2 °C 1017.8 hPa South 8.5 km/h 14.8 km/h 43 % 0 mm
16:52 22.3 °C 9.1 °C 1017.8 hPa SSW 5.8 km/h 14.8 km/h 43 % 0 mm
16:57 22.2 °C 8.7 °C 1017.8 hPa South 7.2 km/h 20.4 km/h 42 % 0 mm
17:02 22.1 °C 8.6 °C 1017.8 hPa SSW 7.6 km/h 20.4 km/h 42 % 0 mm
17:07 21.9 °C 8.8 °C 1017.8 hPa SSW 6.9 km/h 19.3 km/h 43 % 0 mm
17:12 21.8 °C 8.7 °C 1017.8 hPa SSW 11.9 km/h 27.4 km/h 43 % 0 mm
17:17 21.7 °C 8.9 °C 1017.5 hPa South 8 km/h 16.1 km/h 44 % 0 mm
17:22 21.5 °C 8.7 °C 1017.8 hPa South 9.7 km/h 19.3 km/h 44 % 0 mm
17:27 21.4 °C 8.9 °C 1017.5 hPa South 11.3 km/h 19.3 km/h 45 % 0 mm
17:32 21.2 °C 8.5 °C 1017.8 hPa South 11.3 km/h 19.3 km/h 44 % 0 mm
17:37 21.1 °C 8.7 °C 1017.8 hPa SSW 8 km/h 22.5 km/h 45 % 0 mm
17:42 20.9 °C 8.6 °C 1017.8 hPa SSW 8 km/h 14.5 km/h 45 % 0 mm
17:47 20.8 °C 8.4 °C 1017.8 hPa SSW 8 km/h 19.3 km/h 45 % 0 mm
17:52 20.7 °C 8.6 °C 1017.5 hPa SSW 9.7 km/h 16.1 km/h 46 % 0 mm
17:57 20.5 °C 8.5 °C 1017.5 hPa SW 8.7 km/h 16.7 km/h 46 % 0 mm
18:02 20.3 °C 8.3 °C 1017.5 hPa SSE 8.9 km/h 16.7 km/h 46 % 0 mm
18:07 20.2 °C 8.2 °C 1017.8 hPa SW 13.2 km/h 19.3 km/h 46 % 0 mm
18:12 19.9 °C 7.9 °C 1017.8 hPa SSW 14.5 km/h 22.2 km/h 46 % 0 mm
18:17 19.7 °C 8.1 °C 1017.8 hPa SW 14.3 km/h 24.1 km/h 47 % 0 mm
18:22 19.6 °C 7.9 °C 1017.8 hPa SSE 16.9 km/h 25.9 km/h 47 % 0 mm
18:27 19.4 °C 8.1 °C 1017.8 hPa South 8.5 km/h 18.5 km/h 48 % 0 mm
18:32 19.3 °C 8 °C 1017.8 hPa South 13.8 km/h 22.5 km/h 48 % 0 mm
18:37 19.1 °C 8.2 °C 1017.8 hPa SSW 12.6 km/h 22.2 km/h 49 % 0 mm
18:42 19 °C 8.1 °C 1017.8 hPa SSW 12.2 km/h 24.1 km/h 49 % 0 mm
18:47 18.9 °C 8 °C 1017.8 hPa South 6.8 km/h 13 km/h 49 % 0 mm
18:53 18.8 °C 7.9 °C 1017.8 hPa South 10.5 km/h 18.5 km/h 49 % 0 mm
18:58 18.7 °C 7.8 °C 1017.8 hPa SSW 10.5 km/h 14.8 km/h 49 % 0 mm
19:03 18.7 °C 7.7 °C 1017.5 hPa SSE 9.8 km/h 16.7 km/h 49 % 0 mm
19:08 18.6 °C 7.6 °C 1017.5 hPa SSW 15.3 km/h 22.2 km/h 49 % 0 mm
19:13 18.4 °C 7.5 °C 1017.5 hPa SW 15.1 km/h 24.1 km/h 49 % 0 mm
19:18 18.3 °C 7.7 °C 1017.5 hPa SW 14 km/h 18.5 km/h 50 % 0 mm
19:23 18.2 °C 7.6 °C 1017.5 hPa SSW 10.8 km/h 18.5 km/h 50 % 0 mm
19:28 18.1 °C 7.8 °C 1017.5 hPa SSW 14.2 km/h 19.3 km/h 51 % 0 mm
19:33 17.9 °C 7.6 °C 1017.5 hPa South 11.1 km/h 29.6 km/h 51 % 0 mm
19:38 17.8 °C 7.5 °C 1017.5 hPa South 12.6 km/h 20.4 km/h 51 % 0 mm
19:43 17.7 °C 7.7 °C 1017.5 hPa SSW 12.9 km/h 27.4 km/h 52 % 0 mm
19:48 17.6 °C 7.6 °C 1017.5 hPa South 14.5 km/h 16.7 km/h 52 % 0 mm
19:53 17.5 °C 7.6 °C 1017.5 hPa SSW 12.1 km/h 16.7 km/h 52 % 0 mm
19:58 17.4 °C 7.4 °C 1017.8 hPa SSW 11.4 km/h 18.5 km/h 52 % 0 mm
20:03 17.3 °C 7.7 °C 1017.8 hPa SSE 9.3 km/h 16.7 km/h 53 % 0 mm
20:08 17.3 °C 7.6 °C 1017.8 hPa SSW 8.4 km/h 11.1 km/h 53 % 0 mm
20:13 17.2 °C 7.6 °C 1018.2 hPa South 8.2 km/h 17.7 km/h 53 % 0 mm
20:18 17.2 °C 7.8 °C 1017.8 hPa South 9.8 km/h 20.4 km/h 54 % 0 mm
20:23 17.2 °C 7.8 °C 1018.2 hPa SSW 14.3 km/h 16.1 km/h 54 % 0 mm
20:28 17.2 °C 7.5 °C 1018.2 hPa SSW 10.6 km/h 18.5 km/h 53 % 0 mm
20:33 17.2 °C 7.8 °C 1018.2 hPa SW 8.5 km/h 13 km/h 54 % 0 mm
20:38 17.2 °C 7.8 °C 1018.2 hPa SSW 9.7 km/h 17.7 km/h 54 % 0 mm
20:43 17.2 °C 7.8 °C 1018.2 hPa SW 10.9 km/h 18.5 km/h 54 % 0 mm
20:48 17.1 °C 8 °C 1018.2 hPa SSE 12.4 km/h 18.5 km/h 55 % 0 mm
20:53 17.1 °C 7.9 °C 1018.2 hPa South 11.6 km/h 16.7 km/h 55 % 0 mm
20:58 17.1 °C 7.9 °C 1018.2 hPa SSW 10.9 km/h 18.5 km/h 55 % 0 mm
21:03 17 °C 7.9 °C 1018.5 hPa South 11.4 km/h 16.7 km/h 55 % 0 mm
21:08 16.9 °C 8.1 °C 1018.5 hPa South 9.7 km/h 19.3 km/h 56 % 0 mm
21:13 16.9 °C 8.1 °C 1018.5 hPa South 11.1 km/h 18.5 km/h 56 % 0 mm
21:18 16.8 °C 8.2 °C 1018.5 hPa SSW 8.4 km/h 14.5 km/h 57 % 0 mm
21:24 16.6 °C 8.3 °C 1018.5 hPa SSW 9.5 km/h 18.5 km/h 58 % 0 mm
21:29 16.5 °C 8.2 °C 1018.8 hPa South 6.1 km/h 9.3 km/h 58 % 0 mm
21:34 16.3 °C 8.3 °C 1018.8 hPa SW 9.5 km/h 14.8 km/h 59 % 0 mm
21:39 16.3 °C 8.5 °C 1018.8 hPa South 7.1 km/h 11.1 km/h 60 % 0 mm
21:44 16.2 °C 8.4 °C 1018.8 hPa SSW 7.7 km/h 11.1 km/h 60 % 0 mm
21:49 16.1 °C 8.3 °C 1018.8 hPa SSW 8.9 km/h 17.7 km/h 60 % 0 mm
21:54 16.1 °C 8.6 °C 1018.8 hPa SSW 8.2 km/h 13 km/h 61 % 0 mm
21:59 16 °C 8.5 °C 1018.8 hPa SSW 7.4 km/h 9.3 km/h 61 % 0 mm
22:04 16 °C 8.5 °C 1018.8 hPa SSW 9.3 km/h 14.8 km/h 61 % 0 mm
22:09 15.9 °C 8.4 °C 1018.8 hPa South 7.4 km/h 14.8 km/h 61 % 0 mm
22:14 15.9 °C 8.4 °C 1018.8 hPa SSW 7.1 km/h 14.8 km/h 61 % 0 mm
22:19 15.9 °C 8.6 °C 1018.8 hPa South 8.5 km/h 13 km/h 62 % 0 mm
22:24 15.8 °C 8.6 °C 1018.8 hPa South 10.1 km/h 16.7 km/h 62 % 0 mm
22:29 15.8 °C 8.5 °C 1018.8 hPa SSW 12.1 km/h 18.5 km/h 62 % 0 mm
22:34 15.7 °C 8.4 °C 1018.8 hPa South 8.4 km/h 18.5 km/h 62 % 0 mm
22:39 15.7 °C 8.4 °C 1018.8 hPa SSW 10.6 km/h 18.5 km/h 62 % 0 mm
22:44 15.6 °C 8.6 °C 1018.8 hPa SW 9.7 km/h 16.7 km/h 63 % 0 mm
22:49 15.5 °C 8.5 °C 1018.8 hPa SSW 6.6 km/h 9.3 km/h 63 % 0 mm
22:54 15.4 °C 8.4 °C 1018.8 hPa South 8.5 km/h 13 km/h 63 % 0 mm
23:00 15.3 °C 8.5 °C 1018.8 hPa SW 10.1 km/h 19.3 km/h 64 % 0 mm
23:05 15.2 °C 8.4 °C 1018.8 hPa SSW 7.6 km/h 18.5 km/h 64 % 0 mm
23:10 15.1 °C 8.6 °C 1018.8 hPa SW 8 km/h 13 km/h 65 % 0 mm
23:15 15 °C 8.4 °C 1018.8 hPa SW 7.6 km/h 16.1 km/h 65 % 0 mm
23:20 14.9 °C 8.4 °C 1018.8 hPa SW 10.8 km/h 16.7 km/h 65 % 0 mm
23:25 14.8 °C 8.6 °C 1019.2 hPa South 10.8 km/h 14.8 km/h 66 % 0 mm
23:30 14.8 °C 8.5 °C 1018.8 hPa SSW 7.2 km/h 12.9 km/h 66 % 0 mm
23:35 14.7 °C 8.4 °C 1018.8 hPa South 7.9 km/h 13 km/h 66 % 0 mm
23:40 14.7 °C 8.6 °C 1019.2 hPa SW 9.2 km/h 13 km/h 67 % 0 mm
23:45 14.6 °C 8.5 °C 1018.8 hPa SSW 7.6 km/h 13 km/h 67 % 0 mm
23:50 14.5 °C 8.4 °C 1018.8 hPa SSW 10.9 km/h 18.5 km/h 67 % 0 mm
23:55 14.5 °C 8.4 °C 1018.8 hPa SW 8.9 km/h 13 km/h 67 % 0 mm
Crab Meadow Weather
Compliments of Weather Underground - 3 mb

Script developed by  Jim McMurry - jmcmurry@mwt.net Adapted for the template by  Wim van der Kuil - Leuven-Template.eu

Recycling: If every American home replaced just one light bulb with an ENERGY STAR qualified bulb, we would save enough energy to light more than 3 million homes for a year, more than $600 million in annual energy costs, and prevent greenhouse gases equivalent to the emissions of more than 800,000 cars.